Cloud_Cover
32 32 32 24 12 20 32 32 36 36 36 32 32 36 44 44 56 56 56 48 36 20 0 0 0 0 0 0 0 0 0 0 0 0 0 0 0 0 0 0 0 0 0 8 12 8 0 0 0 0 0 0 0 8 8 0 0 8 20 32 24 24 24 20 8 0 0 0 0
36 32 24 20 12 20 24 24 24 24 24 20 32 44 48 56 64 48 36 24 8 0 0 0 0 0 0 0 0 0 0 0 0 0 0 0 0 0 0 0 0 0 8 24 24 12 8 0 0 0 0 0 0 0 8 12 20 32 44 48 24 12 8 12 8 0 0 0 0
32 24 20 8 8 12 24 24 20 20 12 12 24 36 48 44 32 12 0 0 0 0 0 0 0 0 0 0 0 0 0 0 0 0 0 0 0 0 0 0 0 0 8 24 32 24 12 0 0 0 0 0 0 0 8 24 24 32 36 36 12 0 0 20 24 24 20 12 0
32 24 12 0 8 20 24 24 24 24 20 24 24 32 36 24 8 0 0 0 0 0 0 0 0 0 0 0 0 0 0 0 0 0 0 0 0 0 0 0 0 0 0 0 0 0 0 0 0 0 0 0 0 0 0 8 8 8 8 0 0 0 0 0 32 44 44 36 36
36 24 12 0 20 32 32 32 44 32 24 32 32 32 24 12 0 0 0 0 0 0 0 0 0 0 0 0 0 0 0 0 0 0 0 0 0 0 0 0 0 0 0 0 0 0 0 0 0 0 0 0 0 0 0 8 12 12 12 36 32 24 12 8 32 36 36 44 12
24 20 12 12 32 36 36 32 44 32 20 24 20 12 12 8 0 0 0 0 0 0 0 0 0 0 0 0 0 0 0 0 0 0 0 0 0 0 0 0 0 0 0 0 0 0 0 0 0 12 12 0 0 0 0 20 24 24 24 24 32 32 24 36 20 8 0 0 0
12 8 0 12 32 36 36 24 20 20 12 8 12 8 8 8 12 12 8 0 0 0 0 0 0 0 0 0 0 0 0 0 0 0 0 0 0 0 0 0 0 0 0 0 0 0 12 32 24 12 0 0 0 0 8 12 12 24 36 20 20 20 12 0 0 0 0 0 0
0 0 8 20 24 24 24 20 12 8 8 8 0 0 8 12 12 8 0 0 0 0 0 0 0 0 0 0 0 0 0 0 0 0 0 0 0 0 0 0 0 0 0 0 8 32 56 48 24 8 0 0 0 0 0 0 0 8 12 0 0 0 0 0 0 0 0 0 20
32 36 32 24 20 20 20 12 8 0 0 0 0 0 8 12 8 0 0 0 0 0 0 0 0 0 0 0 0 0 0 0 0 0 0 0 0 0 0 0 0 0 0 8 68 80 64 44 20 8 0 0 0 8 8 8 8 8 0 0 0 0 0 8 8 8 12 20 12
48 48 36 24 20 12 8 8 0 0 0 0 0 0 8 0 0 0 0 0 0 0 0 0 0 0 0 0 0 0 0 0 0 0 0 0 0 0 0 0 0 8 32 68 88 76 48 36 20 8 8 8 12 24 32 24 12 12 8 8 0 8 12 24 20 12 12 12 12
68 56 44 32 24 12 8 0 0 0 0 8 0 0 0 0 0 0 0 0 0 0 0 0 0 0 0 0 0 0 0 0 0 0 0 0 0 0 0 0 0 20 56 80 80 76 56 24 12 8 12 44 56 48 36 20 20 24 32 32 24 20 20 12 12 12 8 0 0
68 64 44 32 24 20 12 8 8 8 8 8 8 0 0 0 0 0 0 0 0 0 0 0 0 0 0 0 0 0 0 0 0 0 0 0 0 0 0 0 0 20 36 32 44 48 48 20 8 0 20 88 88 68 44 12 24 32 36 36 24 20 12 8 8 8 0 0 0
64 48 36 32 20 12 12 12 8 12 12 12 12 8 0 0 0 0 0 0 0 0 0 0 0 0 0 0 0 0 0 0 0 0 0 0 0 0 0 0 12 12 8 8 20 32 36 24 20 8 12 64 76 56 32 20 24 24 20 12 8 8 8 8 8 0 0 0 8
56 44 32 20 12 12 8 8 8 12 12 12 12 8 8 8 8 8 0 0 0 0 0 0 0 0 0 0 0 0 0 0 0 0 0 0 0 8 12 0 8 0 0 0 8 12 12 12 8 0 8 36 36 32 24 20 20 12 0 0 0 0 0 8 8 12 12 20 32
48 36 20 12 8 8 0 8 8 8 12 12 12 12 20 12 8 0 0 0 0 0 0 0 0 0 0 0 0 0 0 0 0 0 0 0 0 8 0 0 0 0 0 0 0 0 0 0 0 0 8 24 32 24 20 12 8 0 0 0 0 0 8 8 12 12 12 20 44
48 32 20 12 8 0 0 0 0 8 12 20 20 20 20 12 0 0 0 0 0 0 0 0 0 0 0 0 0 0 0 0 0 0 0 0 0 0 0 0 0 0 0 0 0 0 0 0 0 0 12 44 44 32 12 8 0 0 0 0 12 12 12 12 12 8 0 0 20
44 32 24 20 12 8 0 0 8 12 24 24 24 20 12 0 0 0 0 0 0 0 0 0 0 0 0 0 0 0 0 0 0 0 0 0 0 0 0 0 0 0 0 8 0 0 0 0 0 12 36 56 36 20 8 0 0 8 12 12 24 20 8 0 0 0 0 0 0
44 36 32 24 20 20 12 20 20 24 32 24 20 12 0 0 0 0 0 0 0 0 0 0 0 0 0 0 0 0 0 0 0 0 0 0 0 0 0 0 0 0 0 20 20 12 8 0 8 24 48 64 32 12 8 8 20 24 24 24 24 12 0 0 0 0 0 8 12
48 44 36 32 32 32 32 36 36 32 24 12 8 0 0 0 0 0 0 0 0 0 0 0 0 0 0 0 0 0 0 0 0 0 0 0 0 0 0 0 0 8 20 24 36 32 20 20 24 32 36 44 24 20 20 44 48 48 36 20 12 0 0 0 0 0 0 8 24
56 44 44 36 36 44 48 48 48 32 12 8 0 0 0 0 0 0 0 0 0 0 0 0 0 0 0 0 0 0 0 0 0 0 0 0 0 0 0 0 12 24 32 32 36 44 44 44 36 36 36 32 24 20 36 76 64 48 32 12 0 0 0 0 0 0 0 0 20
56 48 44 44 44 48 56 56 48 24 8 0 0 0 0 0 0 0 0 0 0 0 0 0 0 0 0 0 0 0 0 0 0 0 0 0 0 0 8 12 24 24 24 24 32 44 48 56 48 44 32 12 8 8 20 64 48 36 20 0 0 0 0 0 0 0 0 0 0
56 48 44 44 44 48 56 48 36 20 0 0 0 0 0 0 0 0 0 0 0 0 0 0 0 0 0 0 0 0 0 0 0 0 0 0 0 8 24 32 24 24 20 24 32 44 48 48 36 32 20 0 0 0 12 48 48 24 0 0 0 0 0 0 0 0 0 0 0
56 48 44 44 48 48 48 44 24 12 8 8 8 8 8 8 0 0 0 0 0 0 0 0 0 0 0 0 0 0 0 0 0 8 8 0 0 8 20 56 56 48 36 32 48 48 44 32 20 12 8 8 0 0 0 12 12 8 0 0 0 0 0 0 0 0 0 0 0
56 48 44 36 48 48 48 44 32 20 20 20 12 12 12 12 8 0 0 0 0 0 0 0 0 0 0 0 0 0 0 0 8 8 8 0 8 8 12 44 64 64 64 48 64 48 36 32 20 12 0 0 0 0 0 0 0 0 0 0 0 0 0 0 0 0 0 0 0
56 48 44 36 48 48 48 44 36 32 32 32 24 20 20 12 8 0 0 0 0 0 0 0 0 0 0 0 0 0 0 0 0 0 0 8 20 24 32 32 68 76 64 64 56 44 32 20 12 8 8 0 0 0 0 0 0 0 0 0 0 0 0 0 0 0 0 0 0
56 48 44 36 56 56 56 48 48 44 44 36 32 24 24 20 12 8 0 0 0 0 0 0 0 0 0 0 0 0 0 0 8 8 20 24 32 48 64 56 56 48 44 56 48 32 20 20 8 0 0 0 0 0 0 0 0 0 0 0 0 0 0 0 0 0 0 0 0
56 48 48 48 48 56 56 56 56 48 44 44 32 32 24 20 12 8 0 0 8 8 12 12 12 12 8 12 12 12 12 8 12 24 32 36 36 32 24 32 48 44 36 44 36 32 24 12 8 0 0 8 0 0 0 0 0 0 0 0 0 0 0 0 0 0 0 8 24
64 64 64 68 64 64 68 64 64 48 44 36 32 32 24 20 12 8 8 8 12 12 20 24 24 24 24 24 20 20 20 24 24 24 32 48 48 48 44 36 24 20 12 36 32 32 20 8 0 0 0 0 0 0 0 0 0 0 0 0 0 0 0 0 0 0 8 12 68
56 56 56 64 76 80 76 76 56 44 32 24 24 24 24 20 20 20 20 32 24 24 32 32 36 36 36 36 32 32 32 36 36 36 44 48 48 44 24 20 8 8 12 24 24 24 12 0 0 8 8 0 0 0 0 0 0 0 0 0 0 0 0 0 0 8 12 0 64
80 80 80 92 92 88 80 76 48 32 24 20 24 24 24 24 20 20 20 24 32 44 48 48 48 48 48 44 44 44 44 48 44 48 56 48 44 36 32 20 12 12 12 20 20 12 8 0 8 8 0 0 0 0 0 0 0 0 0 0 0 0 0 0 0 8 8 0 32
80 88 88 76 88 80 68 56 36 24 20 20 20 20 20 20 24 32 32 36 44 48 56 56 56 48 48 48 48 48 56 48 56 56 56 56 48 44 32 20 12 12 12 20 20 12 8 8 8 0 8 0 0 0 0 0 0 0 0 0 0 0 0 0 0 0 0 0 0
76 68 64 48 48 48 48 48 32 24 24 24 24 24 24 32 32 36 44 44 48 56 56 56 56 56 56 48 56 64 64 64 64 64 64 68 56 44 32 24 20 20 20 12 12 12 12 20 8 8 8 0 0 0 0 0 0 0 0 0 0 0 0 0 0 0 0 0 0
56 48 48 36 44 48 48 48 44 36 36 32 32 36 36 36 36 44 48 56 56 56 64 56 56 56 56 56 64 68 64 64 76 68 64 64 56 44 36 24 20 12 12 12 12 20 12 8 8 8 0 0 0 0 0 0 0 0 0 0 0 0 0 0 0 0 0 0 0
44 36 32 36 44 44 36 32 32 32 32 32 44 44 48 48 48 56 64 68 68 68 64 64 64 56 56 64 64 64 64 68 68 64 56 56 48 44 36 24 20 12 12 20 20 24 20 12 8 8 0 0 0 0 0 0 0 0 0 0 0 0 0 0 0 0 0 0 0
48 44 44 32 36 36 32 32 24 24 24 36 48 64 64 64 76 76 76 76 76 76 68 64 56 56 56 56 48 56 64 64 64 56 48 44 44 44 36 24 12 12 12 20 32 36 32 12 12 8 0 0 0 0 0 0 0 0 0 0 0 0 0 0 0 0 0 0 0
56 48 44 32 32 32 32 32 24 24 24 24 56 68 76 88 88 80 80 80 80 76 68 64 56 56 56 48 48 56 56 56 56 56 44 36 36 36 32 24 20 20 20 20 12 20 12 8 8 8 0 0 0 0 0 0 0 0 0 0 0 0 0 0 0 0 0 0 0
64 48 36 36 36 32 32 32 24 24 24 24 56 76 92 92 92 88 80 80 76 76 68 64 64 64 56 56 56 56 56 56 56 48 44 36 36 32 32 24 24 20 20 24 20 20 12 8 8 8 8 0 0 0 0 0 0 0 0 0 0 0 0 0 0 0 0 0 0
64 56 56 48 44 36 32 24 24 24 24 44 68 88 92 88 88 88 80 76 76 76 68 64 68 64 56 56 56 56 48 56 56 48 44 36 32 32 32 32 32 24 24 36 24 12 8 8 8 8 8 8 0 0 0 0 0 0 0 0 0 0 0 0 0 0 0 0 0
80 80 76 64 56 44 36 24 24 32 36 68 80 88 80 80 80 80 76 76 76 68 68 68 68 64 64 56 56 56 48 56 48 48 44 36 32 32 32 32 24 24 20 20 20 12 8 8 8 8 8 8 0 0 0 0 0 0 0 0 0 0 0 0 0 0 0 0 0
92 92 88 76 68 64 48 32 36 44 64 76 88 88 80 80 80 76 76 76 68 68 68 76 68 64 64 56 56 48 48 48 48 44 44 36 32 24 24 32 24 24 24 20 12 8 8 8 12 8 8 0 0 0 0 0 0 0 0 0 0 0 0 0 0 0 0 0 0
92 88 88 80 80 76 68 44 64 68 76 88 88 80 80 80 76 76 76 76 68 68 68 76 68 64 64 56 48 48 48 48 44 36 36 32 32 32 24 24 24 24 24 20 12 8 8 8 8 8 0 0 0 0 0 0 0 0 0 0 0 0 0 0 0 0 0 0 0